GW1714 Weather Reports


time (UTC)temp
F
wind
direction
speed
knots
gust
knots
rain 1hr
in
rain 24hr
in
rain mn
in
humidity
%
barometer
mb
20260503002248 56 149 2.6 2.6 0.00 0.00 0.00 51 1033.2
20260503001745 57 157 0.9 2.6 0.00 0.00 0.00 50 1033.1
20260503001241 57 151 0.9 2.6 0.00 0.00 0.00 49 1033.1
20260503000739 57 168 0.0 2.6 0.00 0.00 0.00 48 1032.9
20260503000236 57 180 1.7 3.5 0.00 0.00 0.00 48 1032.9
20260502235733 58 180 1.7 2.6 0.00 0.00 0.00 49 1032.9
20260502235231 58 109 2.6 2.6 0.00 0.00 0.00 49 1032.8
20260502234727 58 148 2.6 2.6 0.00 0.00 0.00 48 1032.7
20260502234225 57 162 1.7 2.6 0.00 0.00 0.00 49 1032.5
20260502233720 57 186 0.0 2.6 0.00 0.00 0.00 47 1032.6
20260502233217 57 150 2.6 3.5 0.00 0.00 0.00 47 1032.6
20260502232713 58 171 0.0 3.5 0.00 0.00 0.00 47 1032.6
20260502232210 58 148 2.6 3.5 0.00 0.00 0.00 48 1032.6
20260502231707 58 169 1.7 3.5 0.00 0.00 0.00 47 1032.6
20260502231205 58 172 0.0 2.6 0.00 0.00 0.00 49 1032.5
20260502230703 58 185 0.0 1.7 0.00 0.00 0.00 48 1032.7
20260502230201 58 164 0.0 2.6 0.00 0.00 0.00 49 1032.5
20260502225656 59 180 0.9 1.7 0.00 0.00 0.00 49 1032.5
20260502225154 59 180 1.7 2.6 0.00 0.00 0.00 48 1032.8
20260502224650 59 194 0.9 2.6 0.00 0.00 0.00 48 1032.5
20260502224147 60 173 0.0 0.9 0.00 0.00 0.00 47 1032.7
20260502223645 60 194 0.0 1.7 0.00 0.00 0.00 46 1032.7
20260502223143 61 188 0.0 2.6 0.00 0.00 0.00 44 1032.7
20260502222640 61 180 0.0 1.7 0.00 0.00 0.00 42 1032.1
20260502222137 62 166 0.9 2.6 0.00 0.00 0.00 40 1032.4
20260502221632 63 177 1.7 3.5 0.00 0.00 0.00 40 1032.3
20260502221130 62 163 2.6 2.6 0.00 0.00 0.00 40 1032.5
20260502220626 60 195 0.9 2.6 0.00 0.00 0.00 43 1032.5
20260502220122 60 202 1.7 2.6 0.00 0.00 0.00 44 1032.4
20260502215619 60 199 1.7 4.3 0.00 0.00 0.00 45 1032.2
20260502215116 60 172 0.0 2.6 0.00 0.00 0.00 44 1032.1
20260502214613 60 180 0.9 2.6 0.00 0.00 0.00 43 1032.3
20260502214111 60 180 2.6 3.5 0.00 0.00 0.00 41 1032.1
20260502213608 62 174 0.9 2.6 0.00 0.00 0.00 41 1031.7
20260502213105 63 180 1.7 5.2 0.00 0.00 0.00 39 1031.7
20260502212604 64 180 0.9 2.6 0.00 0.00 0.00 39 1031.9
20260502212101 63 176 1.7 3.5 0.00 0.00 0.00 38 1031.4
20260502211556 64 192 0.9 4.3 0.00 0.00 0.00 38 1031.9
20260502211054 63 165 0.9 2.6 0.00 0.00 0.00 39 1031.8
20260502210551 63 194 2.6 3.5 0.00 0.00 0.00 37 1031.6
20260502210048 64 174 3.5 3.5 0.00 0.00 0.00 40 1031.5
20260502205544 64 162 0.9 4.3 0.00 0.00 0.00 38 1031.7
20260502205042 63 152 1.7 2.6 0.00 0.00 0.00 40 1031.7
20260502204538 63 160 0.9 3.5 0.00 0.00 0.00 38 1031.9
20260502204036 61 170 2.6 2.6 0.00 0.00 0.00 41 1031.6
20260502203533 62 180 0.0 3.5 0.00 0.00 0.00 38 1031.7
20260502203030 61 203 0.0 2.6 0.00 0.00 0.00 39 1031.7
20260502202526 61 172 2.6 3.5 0.00 0.00 0.00 37 1031.9
20260502202025 62 195 0.0 3.5 0.00 0.00 0.00 40 1031.9
20260502201520 62 169 1.7 2.6 0.00 0.00 0.00 37 1031.9
20260502201016 65 180 1.7 5.2 0.00 0.00 0.00 35 1031.8
20260502200513 67 122 2.6 2.6 0.00 0.00 0.00 37 1031.9
20260502200011 67 133 2.6 2.6 0.00 0.00 0.00 37 1031.8
20260502195508 64 180 0.0 3.5 0.00 0.00 0.00 37 1031.8
20260502195003 63 165 4.3 5.2 0.00 0.00 0.00 37 1031.9
20260502194501 63 157 5.2 5.2 0.00 0.00 0.00 36 1032.1
20260502193956 62 179 4.3 6.1 0.00 0.00 0.00 36 1032.1
20260502193454 63 180 2.6 7.8 0.00 0.00 0.00 34 1032.3
20260502192949 64 158 4.3 4.3 0.00 0.00 0.00 37 1031.8
20260502192446 63 198 0.9 3.5 0.00 0.00 0.00 34 1031.9
20260502191943 63 174 2.6 4.3 0.00 0.00 0.00 35 1032.2
20260502191441 63 162 4.3 5.2 0.00 0.00 0.00 37 1032.1
20260502190938 61 177 2.6 2.6 0.00 0.00 0.00 38 1031.9
20260502190436 61 192 1.7 4.3 0.00 0.00 0.00 39 1032.2
20260502185932 62 154 1.7 1.7 0.00 0.00 0.00 37 1032.2
20260502185427 60 173 1.7 2.6 0.00 0.00 0.00 46 1032.2
20260502184925 61 185 0.0 1.7 0.00 0.00 0.00 43 1032.2
20260502184420 60 192 1.7 3.5 0.00 0.00 0.00 42 1032.4
20260502183917 61 195 0.9 3.5 0.00 0.00 0.00 42 1032.5
20260502183413 63 172 1.7 6.1 0.00 0.00 0.00 37 1032.4
20260502182909 63 188 0.0 3.5 0.00 0.00 0.00 39 1032.4
20260502182404 63 180 0.0 2.6 0.00 0.00 0.00 39 1032.6
20260502181901 60 174 0.9 3.5 0.00 0.00 0.00 40 1032.5
20260502181359 59 163 3.5 5.2 0.00 0.00 0.00 42 1032.6
20260502180857 62 159 1.7 3.5 0.00 0.00 0.00 42 1032.8
20260502180354 59 184 1.7 3.5 0.00 0.00 0.00 43 1032.5
20260502170312 60 144 1.7 2.6 0.00 0.00 0.00 41 1033.2
20260502164300 59 163 1.7 1.7 0.00 0.00 0.00 41 1033.5
20260502163756 59 174 2.6 3.5 0.00 0.00 0.00 40 1033.2
20260502163252 59 203 0.0 6.1 0.00 0.00 0.00 41 1033.2
20260502162749 59 78 0.0 3.5 0.00 0.00 0.00 43 1033.4
20260502162246 58 147 1.7 4.3 0.00 0.00 0.00 42 1033.4
20260502161743 59 168 1.7 3.5 0.00 0.00 0.00 42 1033.3
20260502161239 59 170 1.7 3.5 0.00 0.00 0.00 42 1033.3
20260502160737 58 150 2.6 2.6 0.00 0.00 0.00 42 1033.5
20260502160236 58 158 4.3 4.3 0.00 0.00 0.00 42 1033.3
20260502152154 56 185 0.9 1.7 0.00 0.00 0.00 55 1033.6
20260502151652 56 172 0.0 1.7 0.00 0.00 0.00 54 1033.3
20260502151149 57 33 1.7 2.6 0.00 0.00 0.00 56 1033.2
20260502150647 56 173 0.0 2.6 0.00 0.00 0.00 56 1033.2
20260502150143 57 11 0.9 2.6 0.00 0.00 0.00 56 1033.1
20260502140106 53 144 1.7 2.6 0.00 0.00 0.00 66 1033.5
20260502130532 51 140 0.0 2.6 0.00 0.00 0.00 71 1033.1
20260502123515 50 152 1.7 3.5 0.00 0.00 0.00 75 1032.9
20260502123011 50 148 0.9 2.6 0.00 0.00 0.00 74 1033.1
20260502122508 50 140 0.9 2.6 0.00 0.00 0.00 74 1033.0
20260502122005 51 18 0.0 2.6 0.00 0.00 0.00 77 1033.0
20260502121503 50 120 0.0 1.7 0.00 0.00 0.00 75 1033.0
20260502121000 50 154 1.7 1.7 0.00 0.00 0.00 75 1033.0
20260502120456 51 135 1.7 2.6 0.00 0.00 0.00 76 1033.2
20260502115450 50 127 0.0 1.7 0.00 0.00 0.00 73 1033.2
20260502114946 50 147 1.7 2.6 0.00 0.00 0.00 72 1032.4
20260502114443 50 131 0.0 1.7 0.00 0.00 0.00 74 1032.7
20260502113941 50 154 2.6 2.6 0.00 0.00 0.00 73 1032.5
20260502113438 50 146 2.6 2.6 0.00 0.00 0.00 73 1032.3
20260502112937 50 147 1.7 2.6 0.00 0.00 0.00 73 1032.5
20260502112434 50 150 1.7 2.6 0.00 0.00 0.00 74 1032.3
20260502111931 50 151 1.7 2.6 0.00 0.00 0.00 76 1032.3
20260502111428 51 157 0.0 1.7 0.00 0.00 0.00 74 1032.2
20260502110926 51 29 0.0 2.6 0.00 0.00 0.00 73 1031.9
20260502110423 50 71 0.0 2.6 0.00 0.00 0.00 72 1031.7
20260502105920 51 96 0.9 0.9 0.00 0.00 0.00 74 1031.9
20260502105417 50 82 0.0 0.9 0.00 0.00 0.00 73 1032.3
20260502104916 50 35 0.9 0.9 0.00 0.00 0.00 74 1032.1
20260502104412 50 99 0.0 1.7 0.00 0.00 0.00 73 1032.2
20260502103909 50 66 0.9 1.7 0.00 0.00 0.00 73 1032.2
20260502103407 50 97 0.0 1.7 0.00 0.00 0.00 73 1032.5
20260502102904 51 135 1.7 1.7 0.00 0.00 0.00 73 1032.6
20260502102400 51 102 0.9 1.7 0.00 0.00 0.00 72 1032.3
20260502101858 51 82 0.0 0.9 0.00 0.00 0.00 72 1032.4
20260502101356 51 131 0.0 1.7 0.00 0.00 0.00 71 1032.5
20260502100854 51 35 0.9 1.7 0.00 0.00 0.00 72 1032.4
20260502100353 51 105 0.9 1.7 0.00 0.00 0.00 72 1032.3
20260502091327 51 150 1.7 1.7 0.00 0.00 0.00 70 1031.9
20260502090825 51 90 0.9 1.7 0.00 0.00 0.00 70 1031.8
20260502090321 51 97 0.0 1.7 0.00 0.00 0.00 71 1032.3
20260502071216 53 154 1.7 2.6 0.00 0.00 0.00 65 1032.4
20260502070714 53 175 0.9 3.5 0.00 0.00 0.00 65 1032.3
20260502070212 53 148 1.7 2.6 0.00 0.00 0.00 65 1032.6
20260502065710 53 166 0.0 2.6 0.00 0.00 0.00 65 1032.5
20260502065208 54 151 1.7 1.7 0.00 0.00 0.00 64 1032.3
20260502064706 54 154 0.0 2.6 0.00 0.00 0.00 64 1032.8
20260502064203 54 145 0.0 2.6 0.00 0.00 0.00 64 1032.6
20260502063701 54 151 2.6 2.6 0.00 0.00 0.00 64 1032.6
20260502063158 54 145 0.0 1.7 0.00 0.00 0.00 65 1032.6
20260502062655 54 157 0.0 1.7 0.00 0.00 0.00 64 1032.5
20260502062153 55 114 0.0 0.9 0.00 0.00 0.00 62 1032.7
20260502061651 55 135 0.0 1.7 0.00 0.00 0.00 63 1032.7
20260502061148 55 145 0.0 1.7 0.00 0.00 0.00 62 1032.5
20260502060643 55 173 0.0 0.0 0.00 0.00 0.00 61 1032.6
20260502060140 55 144 2.6 2.6 0.00 0.00 0.00 62 1032.6
20260502055637 55 150 1.7 2.6 0.00 0.00 0.00 61 1032.3
20260502055135 55 165 0.9 2.6 0.00 0.00 0.00 61 1032.5
20260502054634 55 127 1.7 1.7 0.00 0.00 0.00 61 1032.4
20260502054131 55 168 0.0 2.6 0.00 0.00 0.00 60 1032.6
20260502053628 55 158 1.7 2.6 0.00 0.00 0.00 60 1032.4
20260502053125 55 154 2.6 2.6 0.00 0.00 0.00 61 1032.6
20260502052623 56 172 1.7 1.7 0.00 0.00 0.00 61 1032.5
20260502052121 56 166 1.7 2.6 0.00 0.00 0.00 60 1032.5
20260502051619 56 162 0.0 2.6 0.00 0.00 0.00 60 1032.7
20260502051117 56 147 1.7 2.6 0.00 0.00 0.00 60 1032.5
20260502050613 56 180 0.9 2.6 0.00 0.00 0.00 59 1032.5
20260502050110 56 165 0.0 2.6 0.00 0.00 0.00 59 1032.6
20260502045606 56 166 0.0 2.6 0.00 0.00 0.00 58 1032.6
20260502045104 56 180 0.0 2.6 0.00 0.00 0.00 58 1032.7
20260502044600 56 180 0.0 1.7 0.00 0.00 0.00 58 1032.6
20260502044057 56 154 1.7 1.7 0.00 0.00 0.00 58 1032.8
20260502043554 57 165 0.0 1.7 0.00 0.00 0.00 58 1032.7
20260502043050 57 109 0.9 0.9 0.00 0.00 0.00 58 1032.4
20260502042545 57 175 0.9 1.7 0.00 0.00 0.00 59 1032.3
20260502042043 57 172 0.0 1.7 0.00 0.00 0.00 58 1032.6
20260502041541 57 154 0.9 2.6 0.00 0.00 0.00 57 1032.8
20260502041038 57 180 0.0 3.5 0.00 0.00 0.00 57 1032.6
20260502040534 57 165 0.0 3.5 0.00 0.00 0.00 57 1032.5
20260502040031 57 180 1.7 2.6 0.00 0.00 0.00 58 1032.6
20260502035527 57 180 1.7 2.6 0.00 0.00 0.00 59 1032.5
20260502035025 57 172 1.7 3.5 0.00 0.00 0.00 58 1032.7
20260502034523 58 151 2.6 2.6 0.00 0.00 0.00 59 1032.7
20260502034021 58 186 0.9 2.6 0.00 0.00 0.00 58 1032.4
20260502033519 58 180 1.7 2.6 0.00 0.00 0.00 59 1032.6
20260502033016 58 144 3.5 3.5 0.00 0.00 0.00 59 1032.5
20260502032511 58 194 0.0 4.3 0.00 0.00 0.00 60 1032.6
20260502032009 58 185 0.9 2.6 0.00 0.00 0.00 61 1032.7
20260502031507 58 163 1.7 3.5 0.00 0.00 0.00 63 1032.5
20260502031004 58 168 0.9 4.3 0.00 0.00 0.00 64 1032.7
20260502030503 58 146 2.6 4.3 0.00 0.00 0.00 64 1032.6
20260502030000 58 180 0.0 3.5 0.00 0.00 0.00 64 1032.6
20260502025457 59 198 2.6 2.6 0.00 0.00 0.00 65 1032.5
20260502024955 59 152 2.6 2.6 0.00 0.00 0.00 65 1032.5
20260502024452 59 150 2.6 2.6 0.00 0.00 0.00 65 1032.4
20260502023951 59 154 0.0 1.7 0.00 0.00 0.00 65 1032.6
20260502023448 59 186 0.0 2.6 0.00 0.00 0.00 64 1032.3
20260502022945 59 192 0.0 2.6 0.00 0.00 0.00 63 1032.2
20260502022441 59 166 0.0 2.6 0.00 0.00 0.00 62 1032.4
20260502021938 59 172 0.0 1.7 0.00 0.00 0.00 62 1032.2
20260502021436 60 180 0.9 2.6 0.00 0.00 0.00 60 1032.3
20260502020933 60 172 0.0 2.6 0.00 0.00 0.00 58 1032.3
20260502020431 61 180 1.7 2.6 0.00 0.00 0.00 57 1032.1
20260502015927 61 163 1.7 2.6 0.00 0.00 0.00 56 1032.1
20260502015425 61 117 1.7 2.6 0.00 0.00 0.00 55 1031.9
20260502014921 61 151 0.9 1.7 0.00 0.00 0.00 54 1031.7
20260502014419 61 165 0.0 0.9 0.00 0.00 0.00 54 1031.6
20260502013915 62 140 0.0 1.7 0.00 0.00 0.00 53 1031.6
20260502013410 62 165 0.0 1.7 0.00 0.00 0.00 53 1031.6
20260502012907 62 165 0.0 0.9 0.00 0.00 0.00 53 1031.4
20260502012405 62 99 0.0 1.7 0.00 0.00 0.00 54 1031.2
20260502011902 62 18 0.9 2.6 0.00 0.00 0.00 55 1031.2
20260502011358 62 6 0.9 2.6 0.00 0.00 0.00 55 1031.1
20260502010855 62 50 2.6 3.5 0.00 0.00 0.00 54 1031.0
20260502010352 62 35 0.9 1.7 0.00 0.00 0.00 54 1031.1
20260502005849 62 35 0.9 2.6 0.00 0.00 0.00 54 1030.9
20260502005347 62 16 0.0 3.5 0.00 0.00 0.00 55 1030.9
20260502004844 62 6 0.9 1.7 0.00 0.00 0.00 55 1030.6
20260502004340 62 40 2.6 3.5 0.00 0.00 0.00 53 1030.6
20260502003838 62 15 1.7 2.6 0.00 0.00 0.00 52 1030.4
20260502003334 63 27 2.6 3.5 0.00 0.00 0.00 51 1030.1
20260502002831 63 57 1.7 5.2 0.00 0.00 0.00 51 1030.5